Location: Pilipovskiye Korichintsy
(49.1833°N, 27.4667°E)
Time: 08:22:43
(UTC+00:00)

CZ-2D R/B - Visible Passes

Search period start: 21 October 2020 00:00
Search period end: 31 October 2020 00:00
Orbit: 553 x 637 km, 97.9° (Epoch: 20 October)

Date Brightness Start Highest point End Pass type
(mag) Time Alt. Az. Time Alt. Az. Time Alt. Az.
21 Oct 5.9 01:12:45 10° NNE 01:14:11 20° NNE 01:14:11 20° NNE visible
21 Oct 5.4 02:49:09 10° NNW 02:50:49 17° NW 02:50:49 17° NW visible
22 Oct 5.8 01:22:27 10° NNE 01:23:54 20° NNE 01:23:54 20° NNE visible
22 Oct 5.6 02:59:13 10° NNW 03:00:33 14° NW 03:00:33 14° NW visible
23 Oct 5.8 01:32:12 10° NNE 01:33:37 20° NNE 01:33:37 20° NNE visible
23 Oct 5.7 03:09:21 10° NNW 03:10:16 12° NW 03:10:16 12° NW visible
24 Oct 5.7 01:41:58 10° N 01:43:20 20° N 01:43:20 20° N visible
24 Oct 5.8 03:19:43 10° NW 03:19:58 10° NW 03:19:58 10° NW visible
25 Oct 5.7 01:51:45 10° N 01:53:02 19° N 01:53:02 19° N visible
26 Oct 5.7 02:01:33 10° N 02:02:45 18° N 02:02:45 18° N visible
27 Oct 5.7 02:11:24 10° N 02:12:28 17° N 02:12:28 17° N visible
28 Oct 5.8 02:21:16 10° N 02:22:11 15° N 02:22:11 15° N visible
29 Oct 5.8 02:31:10 10° N 02:31:52 14° NNW 02:31:52 14° NNW visible
30 Oct 5.9 02:41:06 10° N 02:41:35 12° NNW 02:41:35 12° NNW visible
